Location: Mesa Vista Observatory
(35.5777°N, 105.6987°W)
Time: 06:06:26
(UTC-06:00)

Transit 2A - Visible Passes

Search period start: 26 September 2020 00:00
Search period end: 06 October 2020 00:00
Orbit: 592 x 967 km, 66.7° (Epoch: 25 September)

Date Brightness Start Highest point End Pass type
(mag) Time Alt. Az. Time Alt. Az. Time Alt. Az.
27 Sep 9.0 20:10:22 10° WNW 20:12:54 13° W 20:15:20 10° SW visible
28 Sep 8.7 19:34:57 10° WNW 19:39:02 21° WSW 19:42:51 10° SSW visible
02 Oct 9.6 19:03:21 10° W 19:05:12 12° W 19:06:59 10° WSW visible
03 Oct 9.4 06:12:09 10° SE 06:15:40 16° ESE 06:19:14 10° ENE visible
